Weather History for KBKB - April, 2013

Change the Weather History Date:

Monday, April 22, 2013

  Actual Average (KPOE) Record (KPOE)
Temperature  
Mean Temperature 63 °F -  
Max Temperature 80 °F 76 °F 87 °F (2009)
Min Temperature 46 °F 56 °F 46 °F (1998)
Degree Days  
Heating Degree Days 2    
Growing Degree Days 13 (Base 50)    
Moisture  
Dew Point 48 °F    
Average Humidity 64    
Maximum Humidity 92    
Minimum Humidity 32    
Precipitation  
Precipitation 0.00 in - - ()
Sea Level Pressure  
Sea Level Pressure 30.13 in    
Wind  
Wind Speed 1 mph (East)    
Max Wind Speed 6 mph    
Max Gust Speed -    
Visibility 9 miles    
Events      
Averages and records for this station are not official NWS values.
T = Trace of Precipitation, MM = Missing Value Source: NWS Daily Summary

Daily Weather History Graph

Daily Weather History Graph

Search for Another Location

Airport or City:

Trip Planner

Search our weather history database for the weather conditions in past years. The results will help you decide how hot, cold, wet, or windy it might be!

Date:

Astronomy

Apr. 22, 2013 Rise Set
Actual Time 6:35 AM CDT 7:44 PM CDT
Civil Twilight 6:10 AM CDT 8:09 PM CDT
Nautical Twilight 5:40 AM CDT 8:39 PM CDT
Astronomical Twilight 5:10 AM CDT 9:10 PM CDT
Moon 4:45 PM CDT (4/22) 4:17 AM CDT (4/22)
Length of Visible Light 13h 59m
Length of Day
13h 08m
Waxing Gibbous, 88% of the Moon is Illuminated
Apr 22
Waxing Gibbous
Apr 25
Full
May 2
Last Quarter
May 9
New
May 17
First Quarter

Hourly Weather History & Observations

Time (CDT) Temp. Dew Point Humidity Pressure Visibility Wind Dir Wind Speed Gust Speed Precip Events Conditions
12:54 AM 48.9 °F 45.0 °F 86% 30.20 in 6.0 mi Calm Calm - N/A   Clear
1:54 AM 46.9 °F 44.1 °F 90% 30.20 in 6.0 mi Calm Calm - N/A   Clear
2:54 AM 46.9 °F 44.1 °F 90% 30.19 in 6.0 mi Calm Calm - N/A   Clear
3:54 AM 46.9 °F 44.1 °F 90% 30.18 in 6.0 mi Calm Calm - N/A   Clear
4:54 AM 46.0 °F 43.0 °F 89% 30.18 in 7.0 mi Calm Calm - N/A   Clear
5:54 AM 46.0 °F 43.0 °F 89% 30.17 in 9.0 mi Calm Calm - N/A   Clear
6:54 AM 46.0 °F 43.0 °F 89% 30.18 in 5.0 mi Calm Calm - N/A   Clear
7:54 AM 51.1 °F 48.9 °F 92% 30.19 in 9.0 mi Calm Calm - N/A   Clear
8:54 AM 63.0 °F 51.1 °F 65% 30.19 in 10.0 mi Calm Calm - N/A   Clear
9:54 AM 70.0 °F 48.9 °F 47% 30.19 in 10.0 mi Variable 3.5 mph - N/A   Clear
10:54 AM 73.0 °F 46.0 °F 38% 30.20 in 10.0 mi NE 5.8 mph - N/A   Clear
1:54 PM 77.0 °F 46.0 °F 33% 30.13 in 10.0 mi Calm Calm - N/A   Clear
2:54 PM 79.0 °F 46.9 °F 32% 30.10 in 10.0 mi Calm Calm - N/A   Clear
3:54 PM 80.1 °F 48.9 °F 34% 30.07 in 10.0 mi Variable 4.6 mph - N/A   Clear
4:54 PM 79.0 °F 48.0 °F 34% 30.05 in 10.0 mi Calm Calm - N/A   Clear
5:54 PM 79.0 °F 50.0 °F 36% 30.04 in 10.0 mi SSE 5.8 mph - N/A   Clear
6:54 PM 75.0 °F 50.0 °F 41% 30.04 in 10.0 mi Calm Calm - N/A   Clear
7:54 PM 68.0 °F 51.1 °F 55% 30.04 in 10.0 mi Calm Calm - N/A   Clear
8:54 PM 63.0 °F 48.9 °F 60% 30.05 in 10.0 mi Calm Calm - N/A   Clear
9:54 PM 60.1 °F 51.1 °F 72% 30.06 in 10.0 mi Calm Calm - N/A   Clear
10:54 PM 60.1 °F 51.1 °F 72% 30.07 in 10.0 mi Calm Calm - N/A   Clear
11:54 PM 59.0 °F 52.0 °F 78% 30.06 in 10.0 mi Calm Calm - N/A   Clear